Overview Statistics Trail Chart Weather Telemetry Raw packets
 

This is the latest recevied weather packets stored in our database for station/object N4DWK. If no packets are shown the sender has not sent any weather packets the latest 10 day(s).

<< 111 112 113 114 115 >>
Time Temp. Humidity Pressure Rain* Wind** Luminosity Snow
1787778906 32.22° C 55% 1016.4 hPa 0 mm - 306 W/m² -
1787778606 31.67° C 55% 1016.4 hPa 0 mm - 297 W/m² -
1787778306 31.67° C 55% 1016.4 hPa 0 mm - 325 W/m² -
1787778006 31.67° C 51% 1016.4 hPa 0 mm - 243 W/m² -
1787777707 32.22° C 52% 1016.4 hPa 0 mm - 380 W/m² -
1787777406 31.67° C 53% 1016.5 hPa 0 mm - 362 W/m² -
1787777106 32.22° C 54% 1016.5 hPa 0 mm - 418 W/m² -
1787776807 32.22° C 53% 1016.5 hPa 0 mm - 79 W/m² -
1787776506 32.22° C 56% 1016.6 hPa 0 mm - 403 W/m² -
1787776205 31.67° C 55% 1016.6 hPa 0 mm - 429 W/m² -
1787775906 31.11° C 57% 1016.7 hPa 0 mm - 445 W/m² -
1787775606 30.56° C 55% 1016.7 hPa 0 mm - 413 W/m² -
1787775305 30.56° C 56% 1016.8 hPa 0 mm - 84 W/m² -
1787775006 30.56° C 56% 1016.8 hPa 0 mm - 102 W/m² -
1787774705 31.11° C 54% 1016.8 hPa 0 mm - 74 W/m² -
1787774407 31.11° C 53% 1016.8 hPa 0 mm - 461 W/m² -
1787774106 31.11° C 57% 1016.8 hPa 0 mm - 455 W/m² -
1787773806 30.56° C 61% 1016.8 hPa 0 mm - 443 W/m² -
1787773506 30° C 58% 1016.9 hPa 0 mm - 95 W/m² -
1787773206 30.56° C 56% 1016.9 hPa 0 mm - 102 W/m² -
1787772907 30.56° C 57% 1017 hPa 0 mm - 348 W/m² -
1787772607 30.56° C 56% 1017 hPa 0 mm - 132 W/m² -
1787772307 31.11° C 55% 1017.1 hPa 0 mm - 79 W/m² -
1787772006 31.11° C 55% 1017.1 hPa 0 mm - 466 W/m² -
1787771706 31.11° C 56% 1017 hPa 0 mm - 325 W/m² -

* Rain latest hour (hover to see other rain measurements)
** Current wind speed in m/s (hover to see current wind gust speed)